User: anonymous   Login
Location: Tucson
(32.2217°N, 110.9265°W)
Time: 01:52:46
(UTC-07:00)
Language:

Transit 4A - Orbit

View from above orbital plane
View from above orbital plane
View from above satellite
View from above satellite

Ground track
Ground track

The orbit data is extracted from the following two-line orbital elements,

1 00116U 61015A   21293.84762807 -.00000057  00000-0  15207-4 0  9992
2 00116  66.8087  89.3689 0072877  20.5528 339.8456 13.91799674 60045
Epoch (UTC): 20 October 2021 20:20:35
Eccentricity: 0.0072877
inclination: 66.8087°
perigee height: 869 km
apogee height: 975 km
right ascension of ascending node: 89.3689°
argument of perigee: 20.5528°
revolutions per day: 13.91799674
mean anomaly at epoch: 339.8456°
orbit number at epoch: 6004

The dashed part of the orbit path shows where the satellite is in the earth's shadow,  

DLR